Time,TemperatureF,DewpointF,PressureIn,WindDirection,WindDirectionDegrees,WindSpeedMPH,WindSpeedGustMPH,Humidity,HourlyPrecipIn,Conditions,Clouds,dailyrainin,SolarRadiationWatts/m^2,SoftwareType,DateUTC
2013-07-27 00:12:00,55.0,44.0,-100.00,NE,37,6.0,12.0,66,0.00,,,0.00,0.000000,,2013-07-27 05:12:00,
2013-07-27 00:22:00,55.0,44.0,-100.00,NE,37,6.0,12.0,66,0.00,,,0.00,0.000000,,2013-07-27 05:22:00,
2013-07-27 00:32:00,55.0,44.0,-100.00,NE,37,6.0,12.0,66,0.00,,,0.00,0.000000,,2013-07-27 05:32:00,
2013-07-27 00:43:00,55.0,44.0,-100.00,NE,37,6.0,12.0,66,0.00,,,0.00,0.000000,,2013-07-27 05:43:00,
2013-07-27 00:51:00,54.0,46.0,-100.00,NE,49,5.0,9.0,74,0.00,,,0.00,0.000000,,2013-07-27 05:51:00,
2013-07-27 01:12:00,54.0,46.0,-100.00,NE,49,5.0,9.0,74,0.00,,,0.00,0.000000,,2013-07-27 06:12:00,
2013-07-27 01:22:00,54.0,46.0,-100.00,NE,49,5.0,9.0,74,0.00,,,0.00,0.000000,,2013-07-27 06:22:00,
2013-07-27 01:33:00,54.0,46.0,-100.00,NE,49,5.0,9.0,74,0.00,,,0.00,0.000000,,2013-07-27 06:33:00,
2013-07-27 01:43:00,54.0,46.0,-100.00,NE,49,5.0,9.0,74,0.00,,,0.00,0.000000,,2013-07-27 06:43:00,
2013-07-27 01:51:00,53.0,46.0,-100.00,ENE,78,3.0,9.0,77,0.00,,,0.00,0.000000,,2013-07-27 06:51:00,
2013-07-27 02:12:00,53.0,46.0,-100.00,ENE,78,3.0,9.0,77,0.00,,,0.00,0.000000,,2013-07-27 07:12:00,
2013-07-27 02:22:00,53.0,46.0,-100.00,ENE,78,3.0,9.0,77,0.00,,,0.00,0.000000,,2013-07-27 07:22:00,
2013-07-27 02:33:00,53.0,46.0,-100.00,ENE,78,3.0,9.0,77,0.00,,,0.00,0.000000,,2013-07-27 07:33:00,
2013-07-27 02:43:00,53.0,46.0,-100.00,ENE,78,3.0,9.0,77,0.00,,,0.00,0.000000,,2013-07-27 07:43:00,
2013-07-27 02:51:00,50.0,45.0,-100.00,ENE,78,3.0,5.0,83,0.00,,,0.00,0.000000,,2013-07-27 07:51:00,
2013-07-27 03:12:00,50.0,45.0,-100.00,ENE,78,3.0,5.0,83,0.00,,,0.00,0.000000,,2013-07-27 08:12:00,
2013-07-27 03:22:00,50.0,45.0,-100.00,ENE,78,3.0,5.0,83,0.00,,,0.00,0.000000,,2013-07-27 08:22:00,
2013-07-27 03:32:00,50.0,45.0,-100.00,ENE,78,3.0,5.0,83,0.00,,,0.00,0.000000,,2013-07-27 08:32:00,
2013-07-27 03:43:00,50.0,45.0,-100.00,ENE,78,3.0,5.0,83,0.00,,,0.00,0.000000,,2013-07-27 08:43:00,
2013-07-27 03:51:00,48.0,44.0,-100.00,ESE,114,2.0,5.0,85,0.00,,,0.00,0.000000,,2013-07-27 08:51:00,
2013-07-27 04:12:00,48.0,44.0,-100.00,ESE,114,2.0,5.0,85,0.00,,,0.00,0.000000,,2013-07-27 09:12:00,
2013-07-27 04:22:00,48.0,44.0,-100.00,ESE,114,2.0,5.0,85,0.00,,,0.00,0.000000,,2013-07-27 09:22:00,
2013-07-27 04:33:00,48.0,44.0,-100.00,ESE,114,2.0,5.0,85,0.00,,,0.00,0.000000,,2013-07-27 09:33:00,
2013-07-27 04:44:00,48.0,44.0,-100.00,ESE,114,2.0,5.0,85,0.00,,,0.00,0.000000,,2013-07-27 09:44:00,
2013-07-27 04:51:00,46.0,45.0,-100.00,North,7,1.0,5.0,95,0.00,,,0.00,0.000000,,2013-07-27 09:51:00,
2013-07-27 05:22:00,46.0,45.0,-100.00,North,7,1.0,5.0,95,0.00,,,0.00,0.000000,,2013-07-27 10:22:00,
2013-07-27 05:32:00,46.0,45.0,-100.00,North,7,1.0,5.0,95,0.00,,,0.00,0.000000,,2013-07-27 10:32:00,
2013-07-27 05:43:00,46.0,45.0,-100.00,North,7,1.0,5.0,95,0.00,,,0.00,0.000000,,2013-07-27 10:43:00,
2013-07-27 05:51:00,49.0,48.0,-100.00,NW,304,4.0,10.0,97,0.00,,,0.00,0.000000,,2013-07-27 10:51:00,
2013-07-27 06:12:00,49.0,48.0,-100.00,NW,304,4.0,10.0,97,0.00,,,0.00,0.000000,,2013-07-27 11:12:00,
2013-07-27 06:22:00,49.0,48.0,-100.00,NW,304,4.0,10.0,97,0.00,,,0.00,0.000000,,2013-07-27 11:22:00,
2013-07-27 06:32:00,49.0,48.0,-100.00,NW,304,4.0,10.0,97,0.00,,,0.00,0.000000,,2013-07-27 11:32:00,
2013-07-27 06:44:00,49.0,48.0,-100.00,NW,304,4.0,10.0,97,0.00,,,0.00,0.000000,,2013-07-27 11:44:00,
2013-07-27 07:51:00,55.0,50.0,-100.00,NNW,337,6.0,15.0,82,-99.99,,,0.00,43.000000,,2013-07-27 12:51:00,
2013-07-27 08:32:00,55.0,50.0,-100.00,NNW,337,6.0,15.0,82,-99.99,,,0.00,43.000000,,2013-07-27 13:32:00,
2013-07-27 08:44:00,55.0,50.0,-100.00,NNW,337,6.0,15.0,82,-99.99,,,0.00,43.000000,,2013-07-27 13:44:00,
2013-07-27 08:51:00,60.0,52.0,-100.00,North,352,5.0,12.0,76,0.00,,,0.00,335.000000,,2013-07-27 13:51:00,
2013-07-27 09:12:00,60.0,52.0,-100.00,North,352,5.0,12.0,76,0.00,,,0.00,335.000000,,2013-07-27 14:12:00,
2013-07-27 09:22:00,60.0,52.0,-100.00,North,352,5.0,12.0,76,0.00,,,0.00,335.000000,,2013-07-27 14:22:00,
2013-07-27 09:32:00,60.0,52.0,-100.00,North,352,5.0,12.0,76,0.00,,,0.00,335.000000,,2013-07-27 14:32:00,
2013-07-27 09:44:00,60.0,52.0,-100.00,North,352,5.0,12.0,76,0.00,,,0.00,335.000000,,2013-07-27 14:44:00,
2013-07-27 09:51:00,63.0,53.0,-100.00,North,8,5.0,10.0,71,0.00,,,0.00,496.000000,,2013-07-27 14:51:00,
2013-07-27 10:12:00,63.0,53.0,-100.00,North,8,5.0,10.0,71,0.00,,,0.00,496.000000,,2013-07-27 15:12:00,
2013-07-27 10:22:00,63.0,53.0,-100.00,North,8,5.0,10.0,71,0.00,,,0.00,496.000000,,2013-07-27 15:22:00,
2013-07-27 10:33:00,63.0,53.0,-100.00,North,8,5.0,10.0,71,0.00,,,0.00,496.000000,,2013-07-27 15:33:00,
2013-07-27 10:44:00,63.0,53.0,-100.00,North,8,5.0,10.0,71,0.00,,,0.00,496.000000,,2013-07-27 15:44:00,
2013-07-27 10:51:00,66.0,55.0,-100.00,NNE,17,5.0,12.0,67,0.00,,,0.00,642.000000,,2013-07-27 15:51:00,
2013-07-27 11:12:00,66.0,55.0,-100.00,NNE,17,5.0,12.0,67,0.00,,,0.00,642.000000,,2013-07-27 16:12:00,
2013-07-27 11:22:00,66.0,55.0,-100.00,NNE,17,5.0,12.0,67,0.00,,,0.00,642.000000,,2013-07-27 16:22:00,
2013-07-27 11:33:00,66.0,55.0,-100.00,NNE,17,5.0,12.0,67,0.00,,,0.00,642.000000,,2013-07-27 16:33:00,
2013-07-27 11:43:00,66.0,55.0,-100.00,NNE,17,5.0,12.0,67,0.00,,,0.00,642.000000,,2013-07-27 16:43:00,
2013-07-27 11:51:00,67.0,50.0,-100.00,North,11,5.0,15.0,54,0.00,,,0.00,739.000000,,2013-07-27 16:51:00,
2013-07-27 12:12:00,67.0,50.0,-100.00,North,11,5.0,15.0,54,0.00,,,0.00,739.000000,,2013-07-27 17:12:00,
2013-07-27 12:22:00,67.0,50.0,-100.00,North,11,5.0,15.0,54,0.00,,,0.00,739.000000,,2013-07-27 17:22:00,
2013-07-27 12:32:00,67.0,50.0,-100.00,North,11,5.0,15.0,54,0.00,,,0.00,739.000000,,2013-07-27 17:32:00,
2013-07-27 12:43:00,67.0,50.0,-100.00,North,11,5.0,15.0,54,0.00,,,0.00,739.000000,,2013-07-27 17:43:00,
2013-07-27 12:51:00,66.0,43.0,-100.00,North,4,5.0,16.0,44,0.00,,,0.00,735.000000,,2013-07-27 17:51:00,
2013-07-27 13:12:00,66.0,43.0,-100.00,North,4,5.0,16.0,44,0.00,,,0.00,735.000000,,2013-07-27 18:12:00,
2013-07-27 13:22:00,66.0,43.0,-100.00,North,4,5.0,16.0,44,0.00,,,0.00,735.000000,,2013-07-27 18:22:00,
2013-07-27 13:33:00,66.0,43.0,-100.00,North,4,5.0,16.0,44,0.00,,,0.00,735.000000,,2013-07-27 18:33:00,
2013-07-27 13:42:00,66.0,43.0,-100.00,North,4,5.0,16.0,44,0.00,,,0.00,735.000000,,2013-07-27 18:42:00,
2013-07-27 13:51:00,68.0,45.0,-100.00,North,4,6.0,12.0,43,0.00,,,0.00,786.000000,,2013-07-27 18:51:00,
2013-07-27 14:12:00,68.0,45.0,-100.00,North,4,6.0,12.0,43,0.00,,,0.00,786.000000,,2013-07-27 19:12:00,
2013-07-27 14:22:00,68.0,45.0,-100.00,North,4,6.0,12.0,43,0.00,,,0.00,786.000000,,2013-07-27 19:22:00,
2013-07-27 14:32:00,68.0,45.0,-100.00,North,4,6.0,12.0,43,0.00,,,0.00,786.000000,,2013-07-27 19:32:00,
2013-07-27 14:43:00,68.0,45.0,-100.00,North,4,6.0,12.0,43,0.00,,,0.00,786.000000,,2013-07-27 19:43:00,
2013-07-27 14:51:00,70.0,45.0,-100.00,NNE,12,6.0,12.0,40,0.00,,,0.00,915.000000,,2013-07-27 19:51:00,
2013-07-27 15:12:00,70.0,45.0,-100.00,NNE,12,6.0,12.0,40,0.00,,,0.00,915.000000,,2013-07-27 20:12:00,
2013-07-27 15:22:00,70.0,45.0,-100.00,NNE,12,6.0,12.0,40,0.00,,,0.00,915.000000,,2013-07-27 20:22:00,
2013-07-27 15:32:00,70.0,45.0,-100.00,NNE,12,6.0,12.0,40,0.00,,,0.00,915.000000,,2013-07-27 20:32:00,
2013-07-27 15:43:00,70.0,45.0,-100.00,NNE,12,6.0,12.0,40,0.00,,,0.00,915.000000,,2013-07-27 20:43:00,
2013-07-27 15:51:00,71.0,45.0,-100.00,North,10,5.0,13.0,40,0.00,,,0.00,795.000000,,2013-07-27 20:51:00,
2013-07-27 16:12:00,71.0,45.0,-100.00,North,10,5.0,13.0,40,0.00,,,0.00,795.000000,,2013-07-27 21:12:00,
2013-07-27 16:22:00,71.0,45.0,-100.00,North,10,5.0,13.0,40,0.00,,,0.00,795.000000,,2013-07-27 21:22:00,
2013-07-27 16:33:00,71.0,45.0,-100.00,North,10,5.0,13.0,40,0.00,,,0.00,795.000000,,2013-07-27 21:33:00,
2013-07-27 16:43:00,71.0,45.0,-100.00,North,10,5.0,13.0,40,0.00,,,0.00,795.000000,,2013-07-27 21:43:00,
2013-07-27 16:51:00,70.0,44.0,-100.00,North,3,7.0,14.0,39,0.00,,,0.00,716.000000,,2013-07-27 21:51:00,
2013-07-27 17:12:00,70.0,44.0,-100.00,North,3,7.0,14.0,39,0.00,,,0.00,716.000000,,2013-07-27 22:12:00,
2013-07-27 17:22:00,70.0,44.0,-100.00,North,3,7.0,14.0,39,0.00,,,0.00,716.000000,,2013-07-27 22:22:00,
2013-07-27 17:32:00,70.0,44.0,-100.00,North,3,7.0,14.0,39,0.00,,,0.00,716.000000,,2013-07-27 22:32:00,
2013-07-27 17:43:00,70.0,44.0,-100.00,North,3,7.0,14.0,39,0.00,,,0.00,716.000000,,2013-07-27 22:43:00,
2013-07-27 17:51:00,69.0,46.0,-100.00,NNE,30,6.0,12.0,43,0.00,,,0.00,552.000000,,2013-07-27 22:51:00,
2013-07-27 18:12:00,69.0,46.0,-100.00,NNE,30,6.0,12.0,43,0.00,,,0.00,552.000000,,2013-07-27 23:12:00,
2013-07-27 18:22:00,69.0,46.0,-100.00,NNE,30,6.0,12.0,43,0.00,,,0.00,552.000000,,2013-07-27 23:22:00,
2013-07-27 18:32:00,69.0,46.0,-100.00,NNE,30,6.0,12.0,43,0.00,,,0.00,552.000000,,2013-07-27 23:32:00,
2013-07-27 18:44:00,69.0,46.0,-100.00,NNE,30,6.0,12.0,43,0.00,,,0.00,552.000000,,2013-07-27 23:44:00,
2013-07-27 18:51:00,67.0,44.0,-100.00,NNE,21,6.0,13.0,44,0.00,,,0.00,394.000000,,2013-07-27 23:51:00,
2013-07-27 19:12:00,67.0,44.0,-100.00,NNE,21,6.0,13.0,44,0.00,,,0.00,394.000000,,2013-07-28 00:12:00,
2013-07-27 19:22:00,67.0,44.0,-100.00,NNE,21,6.0,13.0,44,0.00,,,0.00,394.000000,,2013-07-28 00:22:00,
2013-07-27 19:32:00,67.0,44.0,-100.00,NNE,21,6.0,13.0,44,0.00,,,0.00,394.000000,,2013-07-28 00:32:00,
2013-07-27 19:44:00,67.0,44.0,-100.00,NNE,21,6.0,13.0,44,0.00,,,0.00,394.000000,,2013-07-28 00:44:00,
2013-07-27 19:51:00,66.0,44.0,-100.00,NE,51,4.0,11.0,45,0.00,,,0.00,224.000000,,2013-07-28 00:51:00,
2013-07-27 20:12:00,66.0,44.0,-100.00,NE,51,4.0,11.0,45,0.00,,,0.00,224.000000,,2013-07-28 01:12:00,
2013-07-27 20:22:00,66.0,44.0,-100.00,NE,51,4.0,11.0,45,0.00,,,0.00,224.000000,,2013-07-28 01:22:00,
2013-07-27 20:32:00,66.0,44.0,-100.00,NE,51,4.0,11.0,45,0.00,,,0.00,224.000000,,2013-07-28 01:32:00,
2013-07-27 20:43:00,66.0,44.0,-100.00,NE,51,4.0,11.0,45,0.00,,,0.00,224.000000,,2013-07-28 01:43:00,
2013-07-27 20:51:00,62.0,42.0,-100.00,ENE,62,3.0,10.0,48,0.00,,,0.00,38.000000,,2013-07-28 01:51:00,
2013-07-27 21:12:00,62.0,42.0,-100.00,ENE,62,3.0,10.0,48,0.00,,,0.00,38.000000,,2013-07-28 02:12:00,
2013-07-27 21:22:00,62.0,42.0,-100.00,ENE,62,3.0,10.0,48,0.00,,,0.00,38.000000,,2013-07-28 02:22:00,
2013-07-27 21:32:00,62.0,42.0,-100.00,ENE,62,3.0,10.0,48,0.00,,,0.00,38.000000,,2013-07-28 02:32:00,
2013-07-27 21:42:00,62.0,42.0,-100.00,ENE,62,3.0,10.0,48,0.00,,,0.00,38.000000,,2013-07-28 02:42:00,
2013-07-27 21:51:00,57.0,42.0,-100.00,East,98,2.0,6.0,58,0.00,,,0.00,8.000000,,2013-07-28 02:51:00,
2013-07-27 22:12:00,57.0,42.0,-100.00,East,98,2.0,6.0,58,0.00,,,0.00,8.000000,,2013-07-28 03:12:00,
2013-07-27 22:22:00,57.0,42.0,-100.00,East,98,2.0,6.0,58,0.00,,,0.00,8.000000,,2013-07-28 03:22:00,
2013-07-27 22:32:00,57.0,42.0,-100.00,East,98,2.0,6.0,58,0.00,,,0.00,8.000000,,2013-07-28 03:32:00,
2013-07-27 22:42:00,57.0,42.0,-100.00,East,98,2.0,6.0,58,0.00,,,0.00,8.000000,,2013-07-28 03:42:00,
2013-07-27 22:51:00,54.0,46.0,-100.00,East,81,3.0,5.0,73,0.00,,,0.00,0.000000,,2013-07-28 03:51:00,
2013-07-27 23:12:00,54.0,46.0,-100.00,East,81,3.0,5.0,73,0.00,,,0.00,0.000000,,2013-07-28 04:12:00,
2013-07-27 23:22:00,54.0,46.0,-100.00,East,81,3.0,5.0,73,0.00,,,0.00,0.000000,,2013-07-28 04:22:00,
2013-07-27 23:32:00,54.0,46.0,-100.00,East,81,3.0,5.0,73,0.00,,,0.00,0.000000,,2013-07-28 04:32:00,
2013-07-27 23:43:00,54.0,46.0,-100.00,East,81,3.0,5.0,73,0.00,,,0.00,0.000000,,2013-07-28 04:43:00,
2013-07-27 23:51:00,53.0,46.0,-100.00,ENE,69,3.0,4.0,76,0.00,,,0.00,0.000000,,2013-07-28 04:51:00,